Iliamna, AK

2:04 PM AKDT on April 29, 2017 (GMT -0800)
Iliamna

Weather History for PAIL - May, 2013

Change the Weather History Date:

Monday, May 27, 2013

  Actual Average Record
Temperature  
Mean Temperature 47 °F -  
Max Temperature 53 °F 54 °F 78 °F (2006)
Min Temperature 41 °F 38 °F 30 °F (1976)
Degree Days  
Heating Degree Days 18    
Moisture  
Dew Point 41 °F    
Average Humidity 82    
Maximum Humidity 96    
Minimum Humidity 62    
Precipitation  
Precipitation 0.04 in - - ()
Sea Level Pressure  
Sea Level Pressure 29.86 in    
Wind  
Wind Speed 6 mph (SSE)    
Max Wind Speed 16 mph    
Max Gust Speed 21 mph    
Visibility 10 miles    
Events Rain    
Averages and records for this station are not official NWS values.
T = Trace of Precipitation, MM = Missing Value Source: NWS Daily Summary

Daily Weather History Graph

Daily Weather History Graph

Search for Another Location

Airport or City:

Trip Planner

Search our weather history database for the weather conditions in past years. The results will help you decide how hot, cold, wet, or windy it might be!

Date:

Astronomy

May. 27, 2013 Rise Set
Actual Time 5:18 AM AKDT 11:16 PM AKDT
Civil Twilight 4:03 AM AKDT 12:32 AM AKDT
Nautical Twilight Sun does not set Sun does not set
Astronomical Twilight Sun does not set Sun does not set
Moon 12:58 AM AKDT (5/27) 8:25 AM AKDT (5/27)
Length of Visible Light 20h 29m
Length of Day
17h 58m
Waning Gibbous, 90% of the Moon is Illuminated
May 27
Waning Gibbous
May 31
Last Quarter
Jun 8
New
Jun 16
First Quarter
Jun 23
Full

Hourly Weather History & Observations

Time (AKDT) Temp. Windchill Dew Point Humidity Pressure Visibility Wind Dir Wind Speed Gust Speed Precip Events Conditions
12:53 AM 42.1 °F - 39.0 °F 89% 29.90 in 10.0 mi Calm Calm - N/A   Overcast
1:53 AM 41.0 °F 38.0 °F 39.0 °F 93% 29.89 in 10.0 mi West 4.6 mph - N/A   Partly Cloudy
2:53 AM 41.0 °F 37.1 °F 39.9 °F 96% 29.88 in 10.0 mi NNW 5.8 mph - N/A   Overcast
3:53 AM 42.1 °F 38.4 °F 39.0 °F 89% 29.88 in 10.0 mi North 5.8 mph - N/A   Overcast
4:53 AM 42.1 °F 38.4 °F 39.9 °F 92% 29.88 in 10.0 mi North 5.8 mph - 0.00 in Rain Light Rain
5:53 AM 42.1 °F 38.4 °F 39.9 °F 92% 29.87 in 10.0 mi North 5.8 mph - 0.01 in Rain Light Rain
6:53 AM 42.1 °F 39.2 °F 41.0 °F 96% 29.88 in 10.0 mi North 4.6 mph - 0.03 in Rain Light Rain
7:53 AM 43.0 °F 39.5 °F 41.0 °F 93% 29.88 in 10.0 mi North 5.8 mph - 0.00 in Rain Light Rain
8:53 AM 44.1 °F - 41.0 °F 89% 29.88 in 10.0 mi Calm Calm - 0.00 in   Overcast
9:53 AM 45.0 °F 43.5 °F 43.0 °F 93% 29.88 in 10.0 mi SSE 3.5 mph - N/A   Overcast
10:03 AM 44.6 °F 43.1 °F 42.8 °F 93% 29.88 in 10.0 mi SE 3.5 mph - N/A   Overcast
10:53 AM 45.0 °F 40.6 °F 42.1 °F 90% 29.88 in 10.0 mi SE 8.1 mph - N/A   Overcast
11:53 AM 45.0 °F 39.3 °F 41.0 °F 86% 29.88 in 10.0 mi ESE 11.5 mph - N/A   Overcast
12:53 PM 46.9 °F - 42.1 °F 83% 29.88 in 10.0 mi SE 11.5 mph - N/A   Overcast
1:53 PM 48.9 °F - 42.1 °F 77% 29.88 in 10.0 mi SE 13.8 mph - N/A   Mostly Cloudy
2:53 PM 48.9 °F - 42.1 °F 77% 29.88 in 10.0 mi SE 16.1 mph 20.7 mph N/A   Mostly Cloudy
3:53 PM 50.0 °F - 41.0 °F 71% 29.86 in 10.0 mi SSE 10.4 mph - N/A   Scattered Clouds
4:53 PM 53.1 °F - 42.1 °F 66% 29.85 in 10.0 mi SSE 15.0 mph 18.4 mph N/A   Clear
5:53 PM 51.1 °F - 39.9 °F 66% 29.84 in 10.0 mi SSE 12.7 mph - N/A   Scattered Clouds
6:53 PM 53.1 °F - 41.0 °F 64% 29.83 in 10.0 mi South 9.2 mph - N/A   Scattered Clouds
7:53 PM 52.0 °F - 39.9 °F 63% 29.82 in 10.0 mi South 10.4 mph - N/A   Clear
8:53 PM 48.9 °F - 39.9 °F 71% 29.82 in 10.0 mi South 8.1 mph - N/A   Clear
9:53 PM 46.9 °F - 39.9 °F 77% 29.83 in 10.0 mi SSW 4.6 mph - N/A   Clear
10:53 PM 44.1 °F 42.5 °F 39.0 °F 82% 29.83 in 10.0 mi WSW 3.5 mph - N/A   Clear
11:53 PM 43.0 °F 39.5 °F 39.0 °F 86% 29.82 in 10.0 mi WNW 5.8 mph - N/A   Clear